Location: Unspecified
(35.7250°N, 0.0000°E)
Time: 23:21:58
(UTC+00:00)

Transit 2A Rocket - Visible Passes

Search period start: 20 June 2019 00:00
Search period end: 30 June 2019 00:00
Orbit: 586 x 917 km, 66.7° (Epoch: 20 June)

Date Brightness Start Highest point End Pass type
(mag) Time Alt. Az. Time Alt. Az. Time Alt. Az.
20 Jun 6.6 20:40:57 10° NW 20:45:01 25° WSW 20:48:48 10° SSW visible
21 Jun 5.6 19:57:53 10° NW 20:02:45 49° WSW 20:07:11 10° S visible
23 Jun 7.2 20:16:47 10° WNW 20:19:46 16° WSW 20:22:38 10° SW visible
